[Date Prev][Date Next][Thread Prev][Thread Next] - [Date Index][Thread Index][Author Index]

2 Line ISS keps 6-7



ISS
1 25544U 98067A   01158.33031250  .00029632  00000-0  34434-3 0   536
2 25544  51.5696 138.4503 0017491 131.9267  34.8274 15.61303173145535

----
Via the sarex mailing list at AMSAT.ORG courtesy of AMSAT-NA.
To unsubscribe, send "unsubscribe sarex" to Majordomo@amsat.org



AMSAT Top AMSAT Home